Retour au catalogue

HAWK-12C

ActifMilitaireSSO
NORAD 64621·PAYLOAD·🇺🇸 United States

Lancé Jun 26, 2025 depuis Rocket Lab Launch Complex 1

Loading…

Prochains Passages (prochaines 24 heures)

TLE

FraisSource: Space-Track

Époque: Sep 14, 2026, 11:07 UTC

1 64621U 25138A   26257.46351743  .00002828  00000-0  13906-3 0  9995
2 64621  97.4393 258.4480 0013561 184.6072 175.5040 15.18771750 67413

Suivez HAWK-12C en temps réel avec AllMySat

Download on the App Store